Location: Hermaringen
(48.5952°N, 10.2585°E)
Time: 07:42:35
(UTC+00:00)

CZ-4C R/B - Pass Details

Date: 18 November 2025
Orbit: 487 x 1492 km, 63.4° (Epoch: 06 December)

Event Time Altitude Azimuth Distance (km) Brightness Sun altitude
Rises 18:45:20 0° 305° (NW) 3,252 6.1 -31.0°
Reaches altitude 10° 18:48:08 10° 321° (NW) 2,490 5.1 -31.5°
Enters shadow 18:51:50 21° 1° (N) 2,013 4.1 -32.1°
